Location: Vancouver
(49.2500°N, 123.1330°W)
Time: 08:35:57
(UTC-07:00)

SO-67 - Visible Passes

Search period start: 26 September 2016 00:00
Search period end: 06 October 2016 00:00
Orbit: 415 x 418 km, 97.1° (Epoch: 26 September)

Date Brightness Start Highest point End Pass type
(mag) Time Alt. Az. Time Alt. Az. Time Alt. Az.
27 Sep ? 20:12:19 10° SW 20:14:16 15° W 20:16:14 10° NW visible
28 Sep ? 19:25:42 10° S 19:28:50 53° W 19:32:00 10° NNW visible
29 Sep ? 20:14:06 10° SW 20:15:57 14° W 20:17:49 10° NW visible
30 Sep ? 19:27:21 10° S 19:30:29 51° W 19:33:37 10° NNW visible
01 Oct ? 20:15:49 10° SW 20:17:34 14° W 20:19:20 10° WNW visible
02 Oct ? 19:28:57 10° S 19:32:03 48° W 19:35:12 10° NNW visible
03 Oct ? 20:17:30 10° WSW 20:19:09 13° W 20:20:48 10° WNW visible
04 Oct ? 19:30:31 10° S 19:33:36 46° W 19:36:43 10° NNW visible
05 Oct ? 20:19:09 10° WSW 20:20:40 13° W 20:22:13 10° WNW visible
